| time (UTC) | temp C | wind direction | speed KPH | gust KPH | rain 1hr cm | rain 24hr cm | rain mn cm | humidity % | barometer mb |
| 20260504041823 | 11 | 169 | 0.0 | 3.2 | 0.00 | 0.00 | 0.00 | 69 | 1017.6 |
| 20260504041319 | 11 | 189 | 0.0 | 3.2 | 0.00 | 0.00 | 0.00 | 68 | 1017.7 |
| 20260504040815 | 12 | 176 | 0.0 | 3.2 | 0.00 | 0.00 | 0.00 | 70 | 1017.7 |
| 20260504040313 | 12 | 218 | 3.2 | 6.4 | 0.00 | 0.00 | 0.00 | 68 | 1017.6 |
| 20260504035809 | 12 | 206 | 0.0 | 3.2 | 0.00 | 0.00 | 0.00 | 68 | 1017.5 |
| 20260504035306 | 12 | 138 | 0.0 | 3.2 | 0.00 | 0.00 | 0.00 | 70 | 1017.9 |
| 20260504034803 | 12 | 196 | 3.2 | 4.8 | 0.00 | 0.00 | 0.00 | 70 | 1017.8 |
| 20260504034301 | 11 | 203 | 0.0 | 4.8 | 0.00 | 0.00 | 0.00 | 70 | 1017.5 |
| 20260504033758 | 11 | 209 | 0.0 | 3.2 | 0.00 | 0.00 | 0.00 | 72 | 1017.6 |
| 20260504033255 | 11 | 202 | 0.0 | 4.8 | 0.00 | 0.00 | 0.00 | 73 | 1017.6 |
| 20260504032752 | 11 | 149 | 0.0 | 1.6 | 0.00 | 0.00 | 0.00 | 75 | 1017.4 |
| 20260504032249 | 12 | 210 | 0.0 | 3.2 | 0.00 | 0.00 | 0.00 | 73 | 1017.3 |
| 20260504031745 | 11 | 160 | 0.0 | 3.2 | 0.00 | 0.00 | 0.00 | 70 | 1017.6 |
| 20260504031243 | 11 | 74 | 0.0 | 3.2 | 0.00 | 0.00 | 0.00 | 74 | 1017.4 |
| 20260504030738 | 11 | 211 | 0.0 | 3.2 | 0.00 | 0.00 | 0.00 | 70 | 1017.4 |
| 20260504030236 | 11 | 231 | 4.8 | 6.4 | 0.00 | 0.00 | 0.00 | 71 | 1017.3 |
| 20260504025732 | 12 | 324 | 0.0 | 6.4 | 0.00 | 0.00 | 0.00 | 71 | 1017.2 |
| 20260504025229 | 11 | 155 | 0.0 | 3.2 | 0.00 | 0.00 | 0.00 | 72 | 1017.1 |
| 20260504024727 | 11 | 213 | 0.0 | 4.8 | 0.00 | 0.00 | 0.00 | 73 | 1017.0 |
| 20260504024223 | 11 | 112 | 0.0 | 3.2 | 0.00 | 0.00 | 0.00 | 76 | 1017.2 |
| 20260504023720 | 11 | 127 | 1.6 | 4.8 | 0.00 | 0.00 | 0.00 | 77 | 1017.0 |
| 20260504023216 | 11 | 120 | 0.0 | 3.2 | 0.00 | 0.00 | 0.00 | 75 | 1017.1 |
| 20260504022712 | 11 | 210 | 0.0 | 3.2 | 0.00 | 0.00 | 0.00 | 74 | 1017.1 |
| 20260504022208 | 11 | 312 | 0.0 | 1.6 | 0.00 | 0.00 | 0.00 | 76 | 1017.0 |
| 20260504021706 | 11 | 180 | 0.0 | 3.2 | 0.00 | 0.00 | 0.00 | 74 | 1017.1 |
| 20260504021203 | 11 | 203 | 0.0 | 1.6 | 0.00 | 0.00 | 0.00 | 76 | 1017.0 |
| 20260504020700 | 11 | 149 | 0.0 | 1.6 | 0.00 | 0.00 | 0.00 | 76 | 1017.1 |
| 20260504020155 | 11 | 241 | 0.0 | 3.2 | 0.00 | 0.00 | 0.00 | 73 | 1017.1 |
| 20260504015652 | 11 | 219 | 0.0 | 4.8 | 0.00 | 0.00 | 0.00 | 73 | 1016.9 |
| 20260504015149 | 11 | 203 | 0.0 | 0.0 | 0.00 | 0.00 | 0.00 | 73 | 1017.0 |
| 20260504014644 | 11 | 224 | 0.0 | 3.2 | 0.00 | 0.00 | 0.00 | 75 | 1016.8 |
| 20260504014142 | 11 | 176 | 0.0 | 3.2 | 0.00 | 0.00 | 0.00 | 75 | 1017.0 |
| 20260504013639 | 11 | 150 | 0.0 | 1.6 | 0.00 | 0.00 | 0.00 | 74 | 1017.0 |
| 20260504013136 | 12 | 202 | 1.6 | 3.2 | 0.00 | 0.00 | 0.00 | 74 | 1016.9 |
| 20260504012633 | 12 | 226 | 0.0 | 4.8 | 0.00 | 0.00 | 0.00 | 73 | 1016.9 |
| 20260504012131 | 12 | 203 | 0.0 | 3.2 | 0.00 | 0.00 | 0.00 | 72 | 1016.7 |
| 20260504011628 | 12 | 198 | 0.0 | 3.2 | 0.00 | 0.00 | 0.00 | 72 | 1016.6 |
| 20260504011124 | 12 | 228 | 3.2 | 3.2 | 0.00 | 0.00 | 0.00 | 72 | 1016.7 |
| 20260504010620 | 12 | 189 | 0.0 | 3.2 | 0.00 | 0.00 | 0.00 | 71 | 1016.6 |
| 20260504010116 | 12 | 198 | 0.0 | 3.2 | 0.00 | 0.00 | 0.00 | 72 | 1016.6 |
| 20260504005613 | 13 | 150 | 0.0 | 3.2 | 0.00 | 0.00 | 0.00 | 70 | 1016.6 |
| 20260504005110 | 13 | 227 | 0.0 | 3.2 | 0.00 | 0.00 | 0.00 | 69 | 1016.5 |
| 20260504004608 | 13 | 215 | 1.6 | 3.2 | 0.00 | 0.00 | 0.00 | 67 | 1016.6 |
| 20260504004105 | 13 | 230 | 0.0 | 1.6 | 0.00 | 0.00 | 0.00 | 65 | 1016.6 |
| 20260504003601 | 14 | 189 | 0.0 | 1.6 | 0.00 | 0.00 | 0.00 | 63 | 1016.5 |
| 20260504003058 | 15 | 144 | 0.0 | 0.0 | 0.00 | 0.00 | 0.00 | 65 | 1016.5 |
| 20260504002555 | 15 | 166 | 0.0 | 0.0 | 0.00 | 0.00 | 0.00 | 61 | 1016.6 |
| 20260504002053 | 15 | 166 | 0.0 | 1.6 | 0.00 | 0.00 | 0.00 | 60 | 1016.5 |
| 20260504001550 | 15 | 189 | 0.0 | 3.2 | 0.00 | 0.00 | 0.00 | 59 | 1016.4 |
| 20260504001046 | 16 | 317 | 0.0 | 0.0 | 0.00 | 0.00 | 0.00 | 59 | 1016.4 |
| 20260504000543 | 16 | 213 | 0.0 | 0.0 | 0.00 | 0.00 | 0.00 | 53 | 1016.4 |
| 20260504000041 | 16 | 189 | 0.0 | 0.0 | 0.00 | 0.00 | 0.00 | 52 | 1016.5 |
| 20260503235539 | 17 | 176 | 0.0 | 1.6 | 0.00 | 0.00 | 0.00 | 49 | 1016.5 |
| 20260503235035 | 18 | 343 | 0.0 | 3.2 | 0.00 | 0.00 | 0.00 | 50 | 1016.6 |
| 20260503234533 | 20 | 346 | 0.0 | 1.6 | 0.00 | 0.00 | 0.00 | 42 | 1016.4 |
| 20260503234031 | 19 | 266 | 0.0 | 4.8 | 0.00 | 0.00 | 0.00 | 46 | 1016.6 |
| 20260503233527 | 20 | 227 | 0.0 | 3.2 | 0.00 | 0.00 | 0.00 | 42 | 1016.5 |
| 20260503233023 | 20 | 292 | 1.6 | 3.2 | 0.00 | 0.00 | 0.00 | 40 | 1016.5 |
| 20260503232520 | 20 | 9 | 0.0 | 1.6 | 0.00 | 0.00 | 0.00 | 42 | 1016.5 |
| 20260503232018 | 20 | 343 | 0.0 | 3.2 | 0.00 | 0.00 | 0.00 | 42 | 1016.8 |
| 20260503231516 | 20 | 13 | 1.6 | 4.8 | 0.00 | 0.00 | 0.00 | 40 | 1016.8 |
| 20260503231012 | 20 | 258 | 0.0 | 3.2 | 0.00 | 0.00 | 0.00 | 39 | 1016.8 |
| 20260503230509 | 20 | 333 | 0.0 | 4.8 | 0.00 | 0.00 | 0.00 | 37 | 1016.8 |
| 20260503230007 | 21 | 328 | 0.0 | 4.8 | 0.00 | 0.00 | 0.00 | 36 | 1016.7 |
| 20260503225503 | 20 | 255 | 0.0 | 6.4 | 0.00 | 0.00 | 0.00 | 38 | 1016.8 |
| 20260503224958 | 21 | 83 | 1.6 | 8.0 | 0.00 | 0.00 | 0.00 | 38 | 1016.7 |
| 20260503224455 | 21 | 302 | 0.0 | 3.2 | 0.00 | 0.00 | 0.00 | 35 | 1016.7 |
| 20260503223953 | 20 | 320 | 0.0 | 6.4 | 0.00 | 0.00 | 0.00 | 38 | 1016.8 |
| 20260503223451 | 20 | 25 | 6.4 | 9.7 | 0.00 | 0.00 | 0.00 | 37 | 1016.8 |
| 20260503222946 | 21 | 3 | 9.7 | 9.7 | 0.00 | 0.00 | 0.00 | 37 | 1016.9 |
| 20260503222445 | 21 | 244 | 0.0 | 4.8 | 0.00 | 0.00 | 0.00 | 38 | 1016.9 |
| 20260503221943 | 20 | 356 | 3.2 | 8.0 | 0.00 | 0.00 | 0.00 | 35 | 1016.7 |
| 20260503221441 | 21 | 68 | 4.8 | 8.0 | 0.00 | 0.00 | 0.00 | 38 | 1016.7 |
| 20260503220937 | 21 | 227 | 3.2 | 4.8 | 0.00 | 0.00 | 0.00 | 36 | 1016.8 |
| 20260503220434 | 21 | 64 | 3.2 | 4.8 | 0.00 | 0.00 | 0.00 | 38 | 1016.9 |
| 20260503215931 | 20 | 1 | 4.8 | 8.0 | 0.00 | 0.00 | 0.00 | 37 | 1016.8 |
| 20260503215428 | 20 | 26 | 3.2 | 8.0 | 0.00 | 0.00 | 0.00 | 36 | 1017.0 |
| 20260503214925 | 20 | 182 | 3.2 | 11.3 | 0.00 | 0.00 | 0.00 | 36 | 1017.0 |
| 20260503214423 | 20 | 260 | 1.6 | 4.8 | 0.00 | 0.00 | 0.00 | 35 | 1017.0 |
| 20260503213920 | 20 | 240 | 4.8 | 6.4 | 0.00 | 0.00 | 0.00 | 36 | 1016.9 |
| 20260503213418 | 19 | 70 | 4.8 | 8.0 | 0.00 | 0.00 | 0.00 | 37 | 1017.0 |
| 20260503212914 | 20 | 148 | 4.8 | 8.0 | 0.00 | 0.00 | 0.00 | 36 | 1017.2 |
| 20260503212412 | 20 | 18 | 0.0 | 9.7 | 0.00 | 0.00 | 0.00 | 37 | 1017.3 |
| 20260503211909 | 20 | 342 | 1.6 | 8.0 | 0.00 | 0.00 | 0.00 | 33 | 1017.3 |
| 20260503211406 | 20 | 40 | 4.8 | 6.4 | 0.00 | 0.00 | 0.00 | 33 | 1017.3 |
| 20260503210901 | 19 | 243 | 0.0 | 11.3 | 0.00 | 0.00 | 0.00 | 35 | 1017.5 |
| 20260503210358 | 20 | 246 | 4.8 | 4.8 | 0.00 | 0.00 | 0.00 | 32 | 1017.5 |
| 20260503205853 | 20 | 133 | 3.2 | 12.9 | 0.00 | 0.00 | 0.00 | 35 | 1017.7 |
| 20260503205350 | 20 | 352 | 3.2 | 9.7 | 0.00 | 0.00 | 0.00 | 39 | 1017.9 |
| 20260503204847 | 20 | 265 | 0.0 | 6.4 | 0.00 | 0.00 | 0.00 | 37 | 1017.6 |
| 20260503204344 | 18 | 166 | 0.0 | 11.3 | 0.00 | 0.00 | 0.00 | 40 | 1017.8 |
| 20260503203841 | 20 | 200 | 6.4 | 14.5 | 0.00 | 0.00 | 0.00 | 39 | 1017.8 |
| 20260503203338 | 20 | 351 | 0.0 | 8.0 | 0.00 | 0.00 | 0.00 | 37 | 1017.7 |
| 20260503202835 | 20 | 233 | 3.2 | 6.4 | 0.00 | 0.00 | 0.00 | 37 | 1018.3 |
| 20260503202333 | 19 | 107 | 3.2 | 16.1 | 0.00 | 0.00 | 0.00 | 42 | 1018.1 |
| 20260503201832 | 18 | 39 | 3.2 | 8.0 | 0.00 | 0.00 | 0.00 | 39 | 1018.3 |
| 20260503201328 | 18 | 256 | 4.8 | 12.9 | 0.00 | 0.00 | 0.00 | 40 | 1018.4 |
| 20260503200826 | 20 | 77 | 6.4 | 9.7 | 0.00 | 0.00 | 0.00 | 38 | 1018.5 |
| 20260503200321 | 19 | 324 | 0.0 | 8.0 | 0.00 | 0.00 | 0.00 | 38 | 1018.5 |
| 20260503195819 | 18 | 338 | 1.6 | 8.0 | 0.00 | 0.00 | 0.00 | 42 | 1018.5 |
| 20260503195315 | 18 | 346 | 4.8 | 11.3 | 0.00 | 0.00 | 0.00 | 38 | 1018.9 |
| 20260503194813 | 19 | 311 | 3.2 | 6.4 | 0.00 | 0.00 | 0.00 | 36 | 1018.9 |
| 20260503194308 | 18 | 327 | 0.0 | 8.0 | 0.00 | 0.00 | 0.00 | 38 | 1018.9 |
| 20260503193805 | 18 | 218 | 3.2 | 8.0 | 0.00 | 0.00 | 0.00 | 37 | 1018.8 |
| 20260503193301 | 18 | 234 | 4.8 | 9.7 | 0.00 | 0.00 | 0.00 | 42 | 1018.9 |
| 20260503192757 | 18 | 277 | 0.0 | 8.0 | 0.00 | 0.00 | 0.00 | 39 | 1019.3 |
| 20260503192252 | 18 | 255 | 8.0 | 11.3 | 0.00 | 0.00 | 0.00 | 39 | 1019.3 |
| 20260503191749 | 18 | 35 | 8.0 | 12.9 | 0.00 | 0.00 | 0.00 | 40 | 1019.5 |
| 20260503191246 | 18 | 239 | 8.0 | 12.9 | 0.00 | 0.00 | 0.00 | 39 | 1019.4 |
| 20260503190743 | 17 | 191 | 1.6 | 9.7 | 0.00 | 0.00 | 0.00 | 39 | 1019.6 |
| 20260503190239 | 19 | 311 | 3.2 | 6.4 | 0.00 | 0.00 | 0.00 | 40 | 1019.5 |
| 20260503185737 | 17 | 52 | 0.0 | 8.0 | 0.00 | 0.00 | 0.00 | 38 | 1019.7 |
| 20260503185232 | 17 | 247 | 0.0 | 4.8 | 0.00 | 0.00 | 0.00 | 40 | 1019.6 |
| 20260503184727 | 16 | 122 | 4.8 | 9.7 | 0.00 | 0.00 | 0.00 | 42 | 1019.7 |
| 20260503184224 | 16 | 196 | 1.6 | 16.1 | 0.00 | 0.00 | 0.00 | 40 | 1019.7 |
| 20260503183720 | 16 | 299 | 3.2 | 16.1 | 0.00 | 0.00 | 0.00 | 46 | 1019.9 |
| 20260503183217 | 18 | 4 | 8.0 | 11.3 | 0.00 | 0.00 | 0.00 | 40 | 1019.8 |
| 20260503182716 | 17 | 67 | 1.6 | 6.4 | 0.00 | 0.00 | 0.00 | 42 | 1019.8 |
| 20260503182214 | 16 | 24 | 9.7 | 12.9 | 0.00 | 0.00 | 0.00 | 43 | 1019.8 |
| 20260503181710 | 15 | 9 | 4.8 | 9.7 | 0.00 | 0.00 | 0.00 | 44 | 1020.1 |
| 20260503181207 | 16 | 321 | 0.0 | 6.4 | 0.00 | 0.00 | 0.00 | 45 | 1019.8 |
| 20260503180703 | 16 | 307 | 0.0 | 8.0 | 0.00 | 0.00 | 0.00 | 42 | 1020.0 |
| 20260503180202 | 16 | 16 | 3.2 | 11.3 | 0.00 | 0.00 | 0.00 | 43 | 1019.9 |
| 20260503175658 | 17 | 114 | 4.8 | 8.0 | 0.00 | 0.00 | 0.00 | 46 | 1020.2 |
| 20260503175156 | 16 | 21 | 6.4 | 9.7 | 0.00 | 0.00 | 0.00 | 47 | 1020.2 |
| 20260503174652 | 15 | 216 | 9.7 | 12.9 | 0.00 | 0.00 | 0.00 | 46 | 1020.2 |
| 20260503174150 | 15 | 163 | 3.2 | 4.8 | 0.00 | 0.00 | 0.00 | 46 | 1020.3 |
| 20260503173645 | 15 | 205 | 1.6 | 14.5 | 0.00 | 0.00 | 0.00 | 52 | 1020.7 |
| 20260503173141 | 15 | 62 | 0.0 | 16.1 | 0.00 | 0.00 | 0.00 | 47 | 1020.5 |
| 20260503172638 | 15 | 111 | 4.8 | 8.0 | 0.00 | 0.00 | 0.00 | 48 | 1020.5 |
| 20260503172136 | 15 | 84 | 1.6 | 8.0 | 0.00 | 0.00 | 0.00 | 44 | 1020.7 |
| 20260503171632 | 15 | 353 | 1.6 | 11.3 | 0.00 | 0.00 | 0.00 | 45 | 1020.7 |
| 20260503171129 | 15 | 155 | 1.6 | 8.0 | 0.00 | 0.00 | 0.00 | 47 | 1020.7 |
| 20260503170626 | 15 | 100 | 1.6 | 6.4 | 0.00 | 0.00 | 0.00 | 45 | 1020.7 |
| 20260503170123 | 15 | 112 | 3.2 | 12.9 | 0.00 | 0.00 | 0.00 | 47 | 1020.7 |
| 20260503150515 | 12 | 250 | 4.8 | 9.7 | 0.00 | 0.00 | 0.00 | 54 | 1021.8 |
| 20260503131408 | 10 | 161 | 6.4 | 11.3 | 0.00 | 0.00 | 0.00 | 78 | 1021.4 |
| 20260503130904 | 8 | 136 | 4.8 | 9.7 | 0.00 | 0.00 | 0.00 | 80 | 1021.2 |
| 20260503130402 | 8 | 151 | 8.0 | 9.7 | 0.00 | 0.00 | 0.00 | 83 | 1021.1 |
| 20260503110811 | 3 | 197 | 1.6 | 3.2 | 0.00 | 0.00 | 0.00 | 99 | 1020.4 |
| 20260503110308 | 4 | 196 | 1.6 | 4.8 | 0.00 | 0.00 | 0.00 | 99 | 1020.4 |
| 20260503100234 | 5 | 119 | 0.0 | 4.8 | 0.00 | 0.00 | 0.00 | 99 | 1019.6 |
| 20260503090154 | 5 | 124 | 3.2 | 4.8 | 0.00 | 0.00 | 0.00 | 99 | 1019.2 |
| 20260503081629 | 5 | 180 | 3.2 | 4.8 | 0.00 | 0.00 | 0.00 | 99 | 1018.8 |
| 20260503081126 | 5 | 164 | 1.6 | 4.8 | 0.00 | 0.00 | 0.00 | 98 | 1018.9 |
| 20260503080622 | 5 | 160 | 3.2 | 4.8 | 0.00 | 0.00 | 0.00 | 98 | 1018.8 |
| 20260503080119 | 5 | 129 | 1.6 | 3.2 | 0.00 | 0.00 | 0.00 | 98 | 1018.9 |
| 20260503072556 | 5 | 194 | 1.6 | 4.8 | 0.00 | 0.00 | 0.00 | 97 | 1018.7 |
| 20260503072053 | 5 | 159 | 3.2 | 4.8 | 0.00 | 0.00 | 0.00 | 97 | 1018.6 |
| 20260503071550 | 5 | 165 | 3.2 | 4.8 | 0.00 | 0.00 | 0.00 | 97 | 1018.4 |
| 20260503071047 | 5 | 162 | 3.2 | 6.4 | 0.00 | 0.00 | 0.00 | 97 | 1018.5 |
| 20260503070543 | 5 | 162 | 3.2 | 4.8 | 0.00 | 0.00 | 0.00 | 96 | 1018.5 |
| 20260503055003 | 6 | 109 | 0.0 | 3.2 | 0.00 | 0.00 | 0.00 | 92 | 1018.4 |
| 20260503054458 | 6 | 178 | 1.6 | 3.2 | 0.00 | 0.00 | 0.00 | 91 | 1018.5 |
| 20260503053956 | 6 | 185 | 3.2 | 4.8 | 0.00 | 0.00 | 0.00 | 90 | 1018.4 |
| 20260503053454 | 7 | 130 | 1.6 | 4.8 | 0.00 | 0.00 | 0.00 | 90 | 1018.3 |
| 20260503052950 | 7 | 173 | 3.2 | 4.8 | 0.00 | 0.00 | 0.00 | 89 | 1018.3 |
| 20260503052448 | 7 | 179 | 1.6 | 3.2 | 0.00 | 0.00 | 0.00 | 89 | 1018.4 |
| 20260503051944 | 7 | 186 | 1.6 | 4.8 | 0.00 | 0.00 | 0.00 | 89 | 1018.3 |
| 20260503051440 | 7 | 182 | 1.6 | 3.2 | 0.00 | 0.00 | 0.00 | 88 | 1018.3 |
| 20260503050937 | 7 | 164 | 3.2 | 4.8 | 0.00 | 0.00 | 0.00 | 87 | 1018.1 |
| 20260503050433 | 7 | 142 | 0.0 | 3.2 | 0.00 | 0.00 | 0.00 | 86 | 1018.0 |
| 20260503045931 | 7 | 150 | 1.6 | 4.8 | 0.00 | 0.00 | 0.00 | 85 | 1017.8 |
| 20260503045428 | 8 | 213 | 0.0 | 1.6 | 0.00 | 0.00 | 0.00 | 84 | 1018.0 |
| 20260503044925 | 7 | 129 | 0.0 | 3.2 | 0.00 | 0.00 | 0.00 | 84 | 1017.9 |
| 20260503044422 | 8 | 168 | 1.6 | 4.8 | 0.00 | 0.00 | 0.00 | 83 | 1017.8 |
| 20260503043919 | 8 | 194 | 3.2 | 3.2 | 0.00 | 0.00 | 0.00 | 82 | 1017.7 |
| 20260503043416 | 8 | 174 | 1.6 | 3.2 | 0.00 | 0.00 | 0.00 | 81 | 1017.7 |
| 20260503042912 | 8 | 186 | 3.2 | 3.2 | 0.00 | 0.00 | 0.00 | 81 | 1017.9 |
| 20260503042409 | 8 | 188 | 3.2 | 3.2 | 0.00 | 0.00 | 0.00 | 81 | 1017.8 |